Salvador Airport, Brazil

12:13 AM -02 en Noviembre 21, 2017 (GMT -0200)
DEP. L. E. Magalhaes International

Tiempo Historia de SBSV - Noviembre, 2017

Change the Weather History Date:

Martes, Noviembre 14, 2017

  Actual Average Record
Temperature  
Temperatura media 80 ° F -  
Temperatura máxima 83 ° F 83 ° F 89 ° F (2003)
Temperatura mínima 76 ° F 73 ° F 66 ° F (2006)
Cooling Degree Days 14    
Growing Degree Days 30 (Base 50)    
Moisture  
Punto de rocío 73 ° F    
Average Humidity 82    
Maximum Humidity 94    
Minimum Humidity 65    
Precipitación  
Precipitación 0.00 pul - - ()
Presión al nivel del mar  
Presión al nivel del mar 29.90 pul    
Viento  
Velocidad del viento 7 mph ()    
Velocidad máxima del viento 20 mph    
Max Gust Speed -    
Visibilidad 7.6 Millas    
Eventos      
Averages and records for this station are not official NWS values.
T = Trace of Precipitation, MM = Missing Value Source: Averaged Metar Reports

Daily Weather History Graph

Daily Weather History Graph

Search for Another Location

Airport or City:

Trip Planner

Search our weather history database for the weather conditions in past years. The results will help you decide how hot, cold, wet, or windy it might be!

Date:

Astronomía

Nov. 14, 2017 Salida Puesta
Hora real 4:56 AM -03 5:38 PM -03
Crepúsculo civil 4:34 AM -03 6:01 PM -03
Crepúsculo náutico 4:07 AM -03 6:27 PM -03
Crepúsculo astronómico 3:41 AM -03 6:54 PM -03
Luna 2:18 AM -03 (11/14) 2:38 PM -03 (11/14)
Horas de luz 13h 27m
Horas de luz
12h 42m
Creciente menguante, 14% of the Moon is Illuminated
Nov 14
Creciente menguante
Nov 18
Nueva
Nov 26
Cuarto creciente
Dic 3
Luna llena
Dic 10
Cuarto menguante

Hourly Weather History & Observations

Hora (-03) Temp. Índice de calor Punto de rocío Humedad Presión Visibilidad Wind Dir Velocidad del viento Velocidad de ráfagas Precip Eventos Condiciones
12:00 AM 78.8 ° F - 73.4 ° F 83% 29.86 pul 6.2 mi ONO 2.3 mph - N/A   Muy nublado
1:00 AM 77.0 ° F - 73.4 ° F 89% 29.86 pul 6.2 mi NNE 2.3 mph - N/A   Muy nublado
2:00 AM 77.0 ° F - 73.4 ° F 89% 29.83 pul - NNO 3.5 mph - N/A   Despejado
3:00 AM 76 ° F - 74 ° F 91% 29.85 pul 12 mi Norte 1.2 mph - -   Muy nublado
3:00 AM 77.0 ° F - 73.4 ° F 89% 29.83 pul - Norte 1.2 mph - N/A   Despejado
4:00 AM 77.0 ° F - 73.4 ° F 89% 29.86 pul 6.2 mi Norte 3.5 mph - N/A   Muy nublado
5:00 AM 77.0 ° F - 73.4 ° F 89% 29.86 pul 6.2 mi Este 1.2 mph - N/A   Muy nublado
6:00 AM 76 ° F - 74 ° F 91% 29.90 pul 12 mi NO 2.3 mph - -   Parcialmente nublado
6:00 AM 77.0 ° F - 73.4 ° F 89% 29.89 pul 6.2 mi NO 2.3 mph - N/A   Muy nublado
7:00 AM 77.0 ° F - 75.2 ° F 94% 29.92 pul 6.2 mi Variable 2.3 mph - N/A   Muy nublado
8:00 AM 78.8 ° F - 73.4 ° F 83% 29.92 pul 6.2 mi NNE 10.4 mph - N/A   Muy nublado
9:00 AM 82 ° F - 74 ° F 72% 29.93 pul 12 mi ENE 10.4 mph - -   Parcialmente nublado
9:00 AM 82.4 ° F 89.5 ° F 75.2 ° F 79% 29.92 pul 6.2 mi ENE 10.4 mph - N/A   Muy nublado
10:00 AM 80.6 ° F 85.4 ° F 73.4 ° F 79% 29.92 pul 6.2 mi ENE 17.3 mph - N/A   Muy nublado
11:00 AM 84.2 ° F 89.6 ° F 71.6 ° F 66% 29.92 pul 6.2 mi ENE 19.6 mph - N/A   Muy nublado
12:00 PM 82 ° F - 72 ° F 65% 29.91 pul 12 mi ENE 16.1 mph - -   Parcialmente nublado
12:00 PM 82.4 ° F 87.2 ° F 71.6 ° F 70% 29.89 pul 6.2 mi ENE 16.1 mph - N/A   Muy nublado
1:00 PM 82.4 ° F 88.2 ° F 73.4 ° F 74% 29.89 pul 6.2 mi ENE 16.1 mph - N/A   Muy nublado
2:00 PM 80.6 ° F 85.4 ° F 73.4 ° F 79% 29.86 pul 6.2 mi Este 18.4 mph - N/A   Nubes dispersas
3:00 PM 80 ° F - 73 ° F 75% 29.88 pul 12 mi Este 16.1 mph - -   Parcialmente nublado
3:00 PM 80.6 ° F 85.4 ° F 73.4 ° F 79% 29.86 pul 6.2 mi Este 16.1 mph - N/A   Nubes dispersas
4:00 PM 78.8 ° F - 73.4 ° F 83% 29.89 pul 6.2 mi Este 15.0 mph - N/A   Nubes dispersas
5:00 PM 78.8 ° F - 73.4 ° F 83% 29.89 pul 6.2 mi Este 12.7 mph - N/A   Muy nublado
6:00 PM 78 ° F - 73 ° F 80% 29.92 pul 12 mi Este 9.2 mph - -   Parcialmente nublado
6:00 PM 78.8 ° F - 73.4 ° F 83% 29.92 pul 6.2 mi Este 9.2 mph - N/A   Nubes dispersas
7:00 PM 78.8 ° F - 73.4 ° F 83% 29.92 pul 6.2 mi Este 10.4 mph - N/A   Nubes dispersas
8:00 PM 78.8 ° F - 73.4 ° F 83% 29.95 pul 6.2 mi Este 9.2 mph - N/A   Nubes dispersas
9:00 PM 78 ° F - 73 ° F 79% 29.96 pul 12 mi Este 10.4 mph - -   Parcialmente nublado
9:00 PM 77.0 ° F - 73.4 ° F 89% 29.95 pul 6.2 mi Este 10.4 mph - N/A   Nubes dispersas
10:00 PM 78.8 ° F - 73.4 ° F 83% 29.98 pul 6.2 mi Este 8.1 mph - N/A   Nubes dispersas
11:00 PM 78.8 ° F - 73.4 ° F 83% 29.95 pul 6.2 mi Este 8.1 mph - N/A   Nubes dispersas